GFSNGP_prec_kuchsnow_333.txt.gz
Snowfall_Accumulation
5.9 2.2 1.6 3.4 3.3 3.4 11.7 7.4 12.5 1.7 1.0 0.6 0.9 2.2 1.0 0.4 0.0 0.1 0.7 2.3 4.2 6.6 9.0 6.7 6.1 2.7 1.0 0.5 0.0 0.0 0.3 0.2 0.1 0.0 0.4 0.3 0.5 0.0 0.0 0.0 0.5 0.4 0.5 0.9
5.3 0.9 0.6 1.6 0.8 2.6 3.3 2.4 1.0 0.4 0.2 0.4 0.7 0.9 0.3 0.2 0.1 0.1 0.7 2.1 3.1 4.0 4.6 4.3 1.9 2.2 1.2 1.2 0.0 0.0 0.4 0.5 0.4 0.7 0.6 0.7 0.7 0.4 0.4 0.5 0.4 0.6 0.9 0.8
12.7 1.7 3.9 14.5 2.7 1.7 7.7 2.4 3.3 7.3 5.3 2.3 2.8 2.6 1.0 0.6 0.2 0.1 0.2 1.2 3.7 3.6 3.1 2.3 1.1 0.4 0.5 0.4 0.0 0.0 0.0 0.3 0.7 0.6 0.8 0.7 0.6 0.5 0.5 0.7 0.7 0.6 1.0 1.1
18.8 7.2 32.9 2.9 0.0 0.0 1.4 4.3 3.2 2.7 3.2 2.7 1.5 1.5 1.0 0.0 0.0 0.1 0.0 0.0 0.5 0.7 0.5 0.2 0.4 0.2 0.1 0.0 0.0 0.0 0.0 0.0 0.4 0.6 0.5 0.4 0.4 0.5 0.3 0.7 0.9 2.0 2.2 2.5
27.2 12.9 3.8 1.0 0.2 0.1 0.3 1.7 0.2 2.6 2.5 1.1 0.9 1.5 0.4 0.0 0.0 0.0 0.0 0.2 0.1 0.0 0.0 0.0 0.0 0.0 0.0 0.5 0.1 0.0 1.7 1.6 1.3 0.6 1.4 1.0 0.4 1.2 1.0 1.0 1.6 1.3 1.2 2.5
17.0 24.8 13.9 2.8 0.0 0.0 0.0 5.2 0.3 1.7 1.5 1.6 0.3 1.5 1.4 0.2 0.0 0.0 0.0 0.0 0.0 0.0 0.0 0.0 0.0 0.0 0.9 0.5 0.3 1.5 1.3 1.5 2.2 2.3 2.7 2.5 2.1 2.1 1.8 1.3 1.0 1.0 1.5 2.0
16.0 17.2 2.7 0.3 0.0 0.0 4.7 7.7 0.7 3.1 1.8 1.9 7.1 3.4 1.1 0.4 0.0 0.0 0.0 0.0 0.0 0.0 0.0 0.0 0.0 0.1 0.3 0.5 1.3 1.2 1.6 2.9 4.0 3.8 3.3 2.9 2.7 1.9 1.6 1.8 1.6 1.9 2.1 2.5
24.0 34.2 21.2 0.1 0.0 1.2 0.7 0.1 0.6 3.6 0.9 1.0 0.8 0.6 0.4 0.1 0.0 0.0 0.0 0.0 0.0 0.0 0.0 0.0 0.0 0.0 0.4 1.0 1.1 1.3 1.9 2.1 2.2 2.7 2.8 2.7 2.5 2.6 2.3 2.0 2.3 2.2 1.6 2.7
11.5 11.5 1.0 0.0 0.3 0.2 0.2 0.4 1.1 3.6 0.3 0.5 0.7 0.9 0.5 0.1 0.0 0.0 0.0 0.0 0.0 0.0 0.0 0.0 0.0 0.0 0.3 0.8 0.8 1.6 2.3 2.5 2.4 2.0 2.2 2.1 2.1 2.2 1.9 1.7 1.7 1.9 1.7 2.1
3.5 0.6 0.2 0.1 0.0 0.0 0.1 0.1 0.2 1.3 0.2 0.3 1.0 1.1 0.6 0.2 0.0 0.1 0.1 0.0 0.0 0.0 0.0 0.0 0.2 0.3 0.3 0.2 0.4 0.9 1.4 1.9 1.9 2.2 2.4 2.0 1.9 1.7 1.8 2.4 2.2 2.0 3.3 5.2
2.1 0.3 0.4 0.1 0.2 0.1 0.1 0.1 0.2 0.1 0.2 0.3 0.5 0.8 0.6 0.3 0.1 0.0 0.2 0.2 0.1 0.0 0.0 0.4 0.3 0.4 0.4 0.4 0.4 0.7 0.5 1.2 1.6 1.7 2.1 2.0 1.9 2.2 1.4 1.8 4.0 6.5 7.7 8.4
8.6 1.5 2.2 0.6 0.3 0.1 0.4 0.6 0.6 0.4 0.5 0.3 0.1 0.2 0.3 0.4 0.2 0.0 0.0 0.1 0.2 0.1 0.1 0.3 0.3 0.6 0.6 0.4 0.4 0.7 0.6 0.9 0.7 1.4 2.3 2.4 2.3 4.0 3.5 6.2 6.9 9.0 15.4 19.4
8.5 2.1 2.1 1.8 0.9 0.3 1.3 2.3 2.8 1.8 1.6 0.9 0.8 0.1 0.0 0.1 0.2 0.0 0.0 0.2 0.6 0.6 0.4 0.4 0.4 0.6 0.8 0.9 0.8 1.6 1.8 1.6 1.4 1.5 2.3 3.3 4.2 5.2 8.9 12.0 12.1 13.8 13.7 14.0
3.6 5.3 6.4 6.4 9.9 4.7 1.2 1.5 1.8 0.3 0.2 0.3 0.4 0.3 0.3 0.7 0.3 0.2 3.4 4.9 5.8 1.9 2.3 2.4 1.2 2.3 2.8 3.1 3.3 4.5 7.6 9.3 10.6 12.4 12.2 11.6 12.1 13.1 12.4 13.0 14.2 16.3 15.0 13.9
0.5 0.8 3.3 4.1 3.9 3.4 1.0 0.2 0.1 0.0 0.3 0.4 0.0 0.4 0.5 0.4 0.3 0.5 0.7 5.8 9.3 11.9 13.3 13.6 12.6 18.5 19.1 16.3 15.2 17.1 15.6 15.5 15.8 14.5 13.5 12.4 11.0 11.0 10.6 10.5 9.9 10.9 11.1 12.2
0.0 0.0 0.2 0.6 0.2 0.0 0.3 0.1 0.6 0.7 0.1 0.1 0.1 0.4 0.3 0.1 0.3 0.6 0.8 1.6 4.4 7.8 12.5 16.8 20.7 26.3 23.0 19.6 19.7 19.0 17.6 13.5 10.3 8.3 8.4 9.5 9.5 8.1 8.4 7.2 6.4 6.4 6.0 6.7
0.6 1.4 1.0 0.7 0.2 0.0 0.0 0.5 0.2 0.1 0.2 0.2 0.3 0.1 0.4 0.7 1.2 2.7 4.7 6.0 8.3 12.1 15.4 17.1 21.7 19.7 16.5 13.0 11.8 11.5 9.7 7.7 5.4 5.2 5.1 5.1 5.2 6.0 5.2 7.2 7.2 5.2 5.1 3.9
0.0 0.1 0.0 0.0 1.1 0.9 0.6 0.2 0.0 0.1 0.6 0.4 1.0 2.6 5.6 6.9 8.0 12.5 14.7 15.1 15.0 15.9 15.9 13.7 9.5 6.5 5.7 5.4 5.8 5.4 4.4 3.3 2.3 3.4 3.9 5.2 5.4 3.3 3.0 3.0 2.2 2.9 2.7 2.0
0.0 0.0 0.1 0.1 0.1 0.1 0.8 0.8 0.9 3.7 5.3 6.0 6.3 7.7 8.0 9.7 9.8 10.6 10.2 9.4 8.7 7.6 10.4 4.5 3.7 2.5 3.3 4.3 3.6 3.9 3.7 4.0 3.5 2.9 1.8 2.3 1.7 1.3 2.0 3.4 3.8 3.5 2.7 4.3
0.5 0.0 0.0 0.0 0.7 1.6 2.8 6.2 5.8 6.0 5.6 4.8 5.9 8.4 10.6 13.3 11.9 11.3 9.7 9.1 8.5 7.4 3.7 3.0 2.8 3.1 3.5 3.6 3.3 3.1 3.0 4.9 4.0 3.1 3.2 3.1 3.9 4.6 3.4 2.5 2.1 3.3 3.4 3.7
1.1 0.8 1.9 1.6 3.0 4.5 4.7 7.0 6.5 7.0 9.9 6.2 5.3 7.6 9.7 12.0 12.1 12.8 10.8 10.7 12.0 5.8 4.6 4.5 2.6 3.5 2.8 4.4 3.8 3.9 4.2 4.8 4.5 4.3 4.2 5.4 5.9 4.5 4.2 3.1 3.2 3.7 4.2 4.9
11.9 13.1 12.6 10.3 8.4 11.4 11.5 10.3 8.2 9.3 10.3 12.3 12.1 11.3 12.4 14.9 13.7 15.3 13.4 12.3 12.8 8.3 4.6 3.9 3.4 4.1 3.3 4.0 4.0 4.6 4.9 5.1 5.5 5.5 5.5 4.9 4.9 4.6 4.0 3.5 4.1 4.5 5.5 5.3
13.0 14.9 17.5 19.4 19.8 20.6 19.8 17.6 17.0 14.8 15.7 15.9 16.1 15.9 14.7 15.2 14.3 15.2 17.1 12.4 9.7 10.5 8.5 8.2 6.5 5.0 4.9 3.5 5.3 6.5 6.4 6.0 7.1 6.5 6.1 6.1 6.1 5.4 5.9 5.3 5.7 5.3 5.1 5.9
13.7 14.8 16.8 18.0 17.0 15.5 17.9 21.3 18.0 17.9 16.9 17.7 16.9 16.6 14.5 16.0 14.2 11.8 11.4 11.6 9.8 9.6 9.6 9.6 8.5 5.0 4.5 6.7 6.6 6.3 6.8 7.8 7.2 6.3 5.2 5.0 5.9 5.6 6.8 6.2 5.9 5.1 4.7 5.2
12.4 14.1 14.0 12.4 11.2 13.6 13.5 14.4 13.0 14.5 13.6 14.2 15.7 14.7 12.9 10.0 14.2 14.4 11.9 10.4 9.5 9.4 11.5 9.7 7.7 8.3 7.8 6.2 6.4 6.1 6.4 5.8 6.0 5.8 6.4 6.2 7.1 7.3 6.5 6.0 6.1 5.5 5.9 5.2
12.3 11.2 12.4 11.4 9.7 9.7 10.4 10.3 9.7 11.8 10.8 11.4 11.9 11.2 10.7 10.1 11.1 11.4 10.7 10.1 9.2 8.4 9.6 9.7 7.8 7.8 8.0 7.8 7.3 7.7 7.2 6.7 6.6 6.4 6.8 7.6 6.4 6.0 5.8 4.9 5.2 6.3 6.4 6.2
12.2 12.4 11.8 12.2 12.1 8.3 7.3 9.0 9.5 10.0 9.3 9.6 10.3 9.0 8.2 9.0 8.5 8.1 8.3 9.0 8.8 9.0 9.4 8.9 7.6 6.7 7.6 8.1 8.3 8.7 8.0 8.1 6.3 5.6 6.3 6.7 6.4 7.0 7.0 5.7 6.7 6.5 5.3 5.9

GFSNGP_prec_kuchsnow_336.txt.gz
Snowfall_Accumulation
5.9 2.2 1.6 3.4 3.3 3.4 11.7 7.4 12.5 1.7 1.0 0.6 0.9 2.2 1.0 0.4 0.0 0.1 0.7 2.3 4.2 6.6 9.0 6.7 6.1 2.7 1.0 0.5 0.0 0.0 0.3 0.2 0.1 0.0 0.4 0.3 0.5 0.0 0.0 0.0 0.5 0.4 0.5 0.9
5.3 0.9 0.6 1.6 0.8 2.6 3.3 2.4 1.0 0.4 0.2 0.4 0.7 0.9 0.3 0.2 0.1 0.1 0.7 2.1 3.1 4.0 4.6 4.3 1.9 2.2 1.2 1.2 0.0 0.0 0.4 0.5 0.4 0.7 0.6 0.7 0.7 0.4 0.4 0.5 0.4 0.6 0.9 0.8
12.7 1.7 3.9 14.5 2.7 1.7 7.7 2.4 3.3 7.3 5.3 2.3 2.8 2.6 1.0 0.6 0.2 0.1 0.2 1.2 3.7 3.6 3.1 2.3 1.1 0.4 0.5 0.4 0.0 0.0 0.0 0.3 0.7 0.6 0.8 0.7 0.6 0.5 0.5 0.7 0.7 0.6 1.0 1.1
18.8 7.2 32.9 2.9 0.0 0.0 1.4 4.3 3.2 2.7 3.2 2.7 1.5 1.5 1.0 0.0 0.0 0.1 0.0 0.0 0.5 0.7 0.5 0.2 0.4 0.2 0.1 0.0 0.0 0.0 0.0 0.0 0.4 0.6 0.5 0.4 0.4 0.5 0.3 0.7 0.9 2.0 2.2 2.5
27.2 12.9 3.8 1.0 0.2 0.1 0.3 1.7 0.2 2.6 2.5 1.1 0.9 1.5 0.4 0.0 0.0 0.0 0.0 0.2 0.1 0.0 0.0 0.0 0.0 0.0 0.0 0.5 0.1 0.0 1.7 1.6 1.3 0.6 1.4 1.0 0.4 1.2 1.0 1.0 1.6 1.3 1.2 2.5
17.0 24.8 13.9 2.8 0.0 0.0 0.0 5.2 0.3 1.7 1.5 1.6 0.3 1.5 1.4 0.2 0.0 0.0 0.0 0.0 0.0 0.0 0.0 0.0 0.0 0.0 0.9 0.5 0.3 1.5 1.3 1.5 2.2 2.3 2.7 2.5 2.1 2.1 1.8 1.3 1.0 1.0 1.5 2.0
16.0 17.2 2.7 0.3 0.0 0.0 4.7 7.7 0.7 3.1 1.8 1.9 7.1 3.4 1.1 0.4 0.0 0.0 0.0 0.0 0.0 0.0 0.0 0.0 0.0 0.1 0.3 0.5 1.3 1.2 1.6 2.9 4.0 3.8 3.3 2.9 2.7 1.9 1.6 1.8 1.6 1.9 2.1 2.5
24.0 34.2 21.2 0.1 0.0 1.2 0.7 0.1 0.6 3.6 0.9 1.0 0.8 0.6 0.4 0.1 0.0 0.0 0.0 0.0 0.0 0.0 0.0 0.0 0.0 0.0 0.4 1.0 1.1 1.3 1.9 2.1 2.2 2.7 2.8 2.7 2.5 2.6 2.3 2.0 2.3 2.2 1.6 2.7
11.5 11.5 1.0 0.0 0.3 0.2 0.2 0.4 1.1 3.6 0.3 0.5 0.7 0.9 0.5 0.1 0.0 0.0 0.0 0.0 0.0 0.0 0.0 0.0 0.0 0.0 0.3 0.8 0.8 1.6 2.3 2.5 2.4 2.0 2.2 2.1 2.1 2.2 1.9 1.7 1.7 1.9 1.7 2.1
3.5 0.6 0.2 0.1 0.0 0.0 0.1 0.1 0.2 1.3 0.2 0.3 1.0 1.1 0.6 0.2 0.0 0.1 0.1 0.0 0.0 0.0 0.0 0.0 0.2 0.3 0.3 0.2 0.4 0.9 1.4 1.9 1.9 2.2 2.4 2.0 1.9 1.7 1.8 2.4 2.2 2.0 3.3 5.2
2.1 0.3 0.4 0.1 0.2 0.1 0.1 0.1 0.2 0.1 0.2 0.3 0.5 0.8 0.6 0.3 0.1 0.0 0.2 0.2 0.1 0.0 0.0 0.4 0.3 0.4 0.4 0.4 0.4 0.7 0.5 1.2 1.6 1.7 2.1 2.0 1.9 2.2 1.4 1.8 4.0 6.5 7.7 8.4
8.6 1.5 2.2 0.6 0.3 0.1 0.4 0.6 0.6 0.4 0.5 0.3 0.1 0.2 0.3 0.4 0.2 0.0 0.0 0.1 0.2 0.1 0.1 0.3 0.3 0.6 0.6 0.4 0.4 0.7 0.6 0.9 0.7 1.4 2.3 2.4 2.3 4.0 3.5 6.2 6.9 9.0 15.4 19.4
8.5 2.1 2.1 1.8 0.9 0.3 1.3 2.3 2.8 1.8 1.6 0.9 0.8 0.1 0.0 0.1 0.2 0.0 0.0 0.2 0.6 0.6 0.4 0.4 0.4 0.6 0.8 0.9 0.8 1.6 1.8 1.6 1.4 1.5 2.3 3.3 4.2 5.2 8.9 12.0 12.1 13.8 13.7 14.0
3.6 5.3 6.4 6.4 9.9 4.7 1.2 1.5 1.8 0.3 0.2 0.3 0.4 0.3 0.3 0.7 0.3 0.2 3.4 4.9 5.8 1.9 2.3 2.4 1.2 2.3 2.8 3.1 3.3 4.5 7.6 9.3 10.6 12.4 12.2 11.6 12.1 13.1 12.4 13.0 14.2 16.3 15.0 13.9
0.5 0.8 3.3 4.1 3.9 3.4 1.0 0.2 0.1 0.0 0.3 0.4 0.0 0.4 0.5 0.4 0.3 0.5 0.7 5.8 9.3 11.9 13.3 13.6 12.6 18.5 19.1 16.3 15.2 17.1 15.6 15.5 15.8 14.5 13.5 12.4 11.0 11.0 10.6 10.5 9.9 10.9 11.1 12.2
0.0 0.0 0.2 0.6 0.2 0.0 0.3 0.1 0.6 0.7 0.1 0.1 0.1 0.4 0.3 0.1 0.3 0.6 0.8 1.6 4.4 7.8 12.5 16.8 20.7 26.3 23.0 19.6 19.7 19.0 17.6 13.5 10.3 8.3 8.4 9.5 9.5 8.1 8.4 7.2 6.4 6.4 6.0 6.7
0.6 1.4 1.0 0.7 0.2 0.0 0.0 0.5 0.2 0.1 0.2 0.2 0.3 0.1 0.4 0.7 1.2 2.7 4.7 6.0 8.3 12.1 15.4 17.1 21.7 19.7 16.5 13.0 11.8 11.5 9.7 7.7 5.4 5.2 5.1 5.1 5.2 6.0 5.2 7.2 7.2 5.2 5.1 3.9
0.0 0.1 0.0 0.0 1.1 0.9 0.6 0.2 0.0 0.1 0.6 0.4 1.0 2.6 5.6 6.9 8.0 12.5 14.7 15.1 15.0 15.9 15.9 13.7 9.5 6.5 5.7 5.4 5.8 5.4 4.4 3.3 2.3 3.4 3.9 5.2 5.4 3.3 3.0 3.0 2.2 2.9 2.7 2.0
0.0 0.0 0.1 0.1 0.1 0.1 0.8 0.8 0.9 3.7 5.3 6.0 6.3 7.7 8.0 9.7 9.8 10.6 10.2 9.4 8.7 7.6 10.4 4.5 3.7 2.5 3.3 4.3 3.6 3.9 3.7 4.0 3.5 2.9 1.8 2.3 1.7 1.3 2.0 3.4 3.8 3.5 2.7 4.3
0.5 0.0 0.0 0.0 0.7 1.6 2.8 6.2 5.8 6.0 5.6 4.8 5.9 8.4 10.6 13.3 11.9 11.3 9.7 9.1 8.5 7.4 3.7 3.0 2.8 3.1 3.5 3.6 3.3 3.1 3.0 4.9 4.0 3.1 3.2 3.1 3.9 4.6 3.4 2.5 2.1 3.3 3.4 3.7
1.1 0.8 1.9 1.6 3.0 4.5 4.7 7.0 6.5 7.0 9.9 6.2 5.3 7.6 9.7 12.0 12.1 12.8 10.8 10.7 12.0 5.8 4.6 4.5 2.6 3.5 2.8 4.4 3.8 3.9 4.2 4.8 4.5 4.3 4.2 5.4 5.9 4.5 4.2 3.1 3.2 3.7 4.2 4.9
11.9 13.1 12.6 10.3 8.4 11.4 11.5 10.3 8.2 9.3 10.3 12.3 12.1 11.3 12.4 14.9 13.7 15.3 13.4 12.3 12.8 8.3 4.6 3.9 3.4 4.1 3.3 4.0 4.0 4.6 4.9 5.1 5.5 5.5 5.5 4.9 4.9 4.7 4.1 3.5 4.1 4.5 5.5 5.3
13.0 14.9 17.5 19.4 19.8 20.6 19.8 17.6 17.0 14.8 15.7 15.9 16.1 15.9 14.7 15.2 14.3 15.2 17.1 12.4 9.7 10.5 8.5 8.2 6.5 5.0 4.9 3.5 5.3 6.5 6.4 6.0 7.1 6.5 6.1 6.1 6.1 5.5 6.1 5.4 5.7 5.4 5.1 5.9
13.7 14.8 16.8 18.0 17.0 15.5 17.9 21.3 18.0 17.9 16.9 17.7 16.9 16.6 14.5 16.0 14.2 11.8 11.4 11.6 9.8 9.6 9.6 9.6 8.5 5.0 4.5 6.7 6.6 6.3 6.8 7.8 7.2 6.3 5.2 5.0 5.9 5.6 6.8 6.3 6.0 5.1 4.7 5.2
12.4 14.1 14.0 12.4 11.2 13.6 13.5 14.4 13.0 14.5 13.6 14.2 15.7 14.7 12.9 10.0 14.2 14.4 11.9 10.4 9.5 9.4 11.5 9.7 7.7 8.3 7.8 6.2 6.4 6.1 6.4 5.8 6.0 5.8 6.4 6.2 7.1 7.3 6.5 6.0 6.1 5.5 6.0 5.3
12.3 11.2 12.4 11.4 9.7 9.7 10.4 10.3 9.7 11.8 10.8 11.4 11.9 11.2 10.7 10.1 11.1 11.4 10.7 10.1 9.2 8.4 9.6 9.7 7.8 7.8 8.0 7.8 7.3 7.7 7.2 6.7 6.6 6.4 6.8 7.6 6.4 6.0 5.8 4.9 5.2 6.3 6.4 6.3
12.2 12.5 11.8 12.2 12.1 8.3 7.3 9.0 9.5 10.0 9.3 9.6 10.3 9.0 8.2 9.0 8.5 8.1 8.3 9.0 8.8 9.0 9.4 8.9 7.6 6.7 7.6 8.1 8.3 8.7 8.0 8.1 6.3 5.6 6.3 6.7 6.4 7.0 7.0 5.7 6.7 6.5 5.3 6.0

GFSNGP_prec_kuchsnow_339.txt.gz
Snowfall_Accumulation
5.9 2.2 1.6 3.4 3.3 3.4 11.7 7.4 12.5 1.7 1.0 0.6 0.9 2.2 1.0 0.4 0.0 0.1 0.7 2.3 4.2 6.6 9.0 6.7 6.1 2.7 1.0 0.5 0.0 0.0 0.3 0.2 0.1 0.0 0.4 0.3 0.5 0.0 0.0 0.0 0.5 0.4 0.5 0.9
5.3 0.9 0.6 1.6 0.8 2.6 3.3 2.4 1.0 0.4 0.2 0.4 0.7 0.9 0.3 0.2 0.1 0.1 0.7 2.1 3.1 4.0 4.6 4.3 1.9 2.2 1.2 1.2 0.0 0.0 0.4 0.5 0.4 0.7 0.6 0.7 0.7 0.4 0.4 0.5 0.4 0.6 0.9 0.8
12.7 1.7 3.9 14.5 2.7 1.7 7.7 2.4 3.3 7.3 5.3 2.3 2.8 2.6 1.0 0.6 0.2 0.1 0.2 1.2 3.7 3.6 3.1 2.3 1.1 0.4 0.5 0.4 0.0 0.0 0.0 0.3 0.7 0.6 0.8 0.7 0.6 0.5 0.5 0.7 0.7 0.6 1.0 1.1
18.8 7.2 32.9 2.9 0.0 0.0 1.4 4.3 3.2 2.7 3.2 2.7 1.5 1.5 1.0 0.0 0.0 0.1 0.0 0.0 0.5 0.7 0.5 0.2 0.4 0.2 0.1 0.0 0.0 0.0 0.0 0.0 0.4 0.6 0.5 0.4 0.4 0.5 0.3 0.7 0.9 2.0 2.2 2.5
27.2 12.9 3.8 1.0 0.2 0.1 0.3 1.7 0.2 2.6 2.5 1.1 0.9 1.5 0.4 0.0 0.0 0.0 0.0 0.2 0.1 0.0 0.0 0.0 0.0 0.0 0.0 0.5 0.1 0.0 1.7 1.6 1.3 0.6 1.4 1.0 0.4 1.2 1.0 1.0 1.6 1.3 1.2 2.5
17.0 24.8 13.9 2.8 0.0 0.0 0.0 5.2 0.3 1.7 1.5 1.6 0.3 1.5 1.4 0.2 0.0 0.0 0.0 0.0 0.0 0.0 0.0 0.0 0.0 0.0 0.9 0.5 0.3 1.5 1.3 1.5 2.2 2.3 2.7 2.5 2.1 2.1 1.8 1.3 1.0 1.0 1.5 2.0
16.0 17.2 2.7 0.3 0.0 0.0 4.7 7.7 0.7 3.1 1.8 1.9 7.1 3.4 1.1 0.4 0.0 0.0 0.0 0.0 0.0 0.0 0.0 0.0 0.0 0.1 0.3 0.5 1.3 1.2 1.6 2.9 4.0 3.8 3.3 2.9 2.7 1.9 1.6 1.8 1.6 1.9 2.1 2.5
24.0 34.2 21.2 0.1 0.0 1.2 0.7 0.1 0.6 3.6 0.9 1.0 0.8 0.6 0.4 0.1 0.0 0.0 0.0 0.0 0.0 0.0 0.0 0.0 0.0 0.0 0.4 1.0 1.1 1.3 1.9 2.1 2.2 2.7 2.8 2.7 2.5 2.6 2.3 2.0 2.3 2.2 1.6 2.7
11.5 11.5 1.0 0.0 0.3 0.2 0.2 0.4 1.1 3.6 0.3 0.5 0.7 0.9 0.5 0.1 0.0 0.0 0.0 0.0 0.0 0.0 0.0 0.0 0.0 0.0 0.3 0.8 0.8 1.6 2.3 2.5 2.4 2.0 2.2 2.1 2.1 2.2 1.9 1.7 1.7 1.9 1.7 2.1
3.5 0.6 0.2 0.1 0.0 0.0 0.1 0.1 0.2 1.3 0.2 0.3 1.0 1.1 0.6 0.2 0.0 0.1 0.1 0.0 0.0 0.0 0.0 0.0 0.2 0.3 0.3 0.2 0.4 0.9 1.4 1.9 1.9 2.2 2.4 2.0 1.9 1.7 1.8 2.4 2.2 2.0 3.3 5.2
2.1 0.3 0.4 0.1 0.2 0.1 0.1 0.1 0.2 0.1 0.2 0.3 0.5 0.8 0.6 0.3 0.1 0.0 0.2 0.2 0.1 0.0 0.0 0.4 0.3 0.4 0.4 0.4 0.4 0.7 0.5 1.2 1.6 1.7 2.1 2.0 1.9 2.2 1.4 1.8 4.0 6.5 7.7 8.4
8.6 1.5 2.2 0.6 0.3 0.1 0.4 0.6 0.6 0.4 0.5 0.3 0.1 0.2 0.3 0.4 0.2 0.0 0.0 0.1 0.2 0.1 0.1 0.3 0.3 0.6 0.6 0.4 0.4 0.7 0.6 0.9 0.7 1.4 2.3 2.4 2.3 4.0 3.5 6.2 6.9 9.0 15.4 19.4
8.5 2.1 2.1 1.8 0.9 0.3 1.3 2.3 2.8 1.8 1.6 0.9 0.8 0.1 0.0 0.1 0.2 0.0 0.0 0.2 0.6 0.6 0.4 0.4 0.4 0.6 0.8 0.9 0.8 1.6 1.8 1.6 1.4 1.5 2.3 3.3 4.2 5.2 8.9 12.0 12.1 13.8 13.7 14.0
3.6 5.3 6.4 6.4 9.9 4.7 1.2 1.5 1.8 0.3 0.2 0.3 0.4 0.3 0.3 0.7 0.3 0.2 3.4 4.9 5.8 1.9 2.3 2.4 1.2 2.3 2.8 3.1 3.3 4.5 7.6 9.3 10.6 12.4 12.2 11.6 12.1 13.1 12.4 13.0 14.2 16.3 15.0 13.9
0.5 0.8 3.3 4.1 3.9 3.4 1.0 0.2 0.1 0.0 0.3 0.4 0.0 0.4 0.5 0.4 0.3 0.5 0.7 5.8 9.3 11.9 13.3 13.6 12.6 18.5 19.1 16.3 15.2 17.1 15.6 15.5 15.8 14.5 13.5 12.4 11.0 11.0 10.6 10.5 9.9 10.9 11.1 12.2
0.0 0.0 0.2 0.6 0.2 0.0 0.3 0.1 0.6 0.7 0.1 0.1 0.1 0.4 0.3 0.1 0.3 0.6 0.8 1.6 4.4 7.8 12.5 16.8 20.7 26.3 23.0 19.6 19.7 19.0 17.6 13.5 10.3 8.3 8.4 9.5 9.5 8.1 8.4 7.2 6.4 6.4 6.0 6.7
0.6 1.4 1.0 0.7 0.2 0.0 0.0 0.5 0.2 0.1 0.2 0.2 0.3 0.1 0.4 0.7 1.2 2.7 4.7 6.0 8.3 12.1 15.4 17.1 21.7 19.7 16.5 13.0 11.8 11.5 9.7 7.7 5.4 5.2 5.1 5.1 5.2 6.0 5.2 7.2 7.2 5.2 5.1 3.9
0.0 0.1 0.0 0.0 1.1 0.9 0.6 0.2 0.0 0.1 0.6 0.4 1.0 2.6 5.6 6.9 8.0 12.5 14.7 15.1 15.0 15.9 15.9 13.7 9.5 6.5 5.7 5.4 5.8 5.4 4.4 3.3 2.3 3.4 3.9 5.2 5.4 3.3 3.0 3.0 2.2 2.9 2.7 2.0
0.0 0.0 0.1 0.1 0.1 0.1 0.8 0.8 0.9 3.7 5.3 6.0 6.3 7.7 8.0 9.7 9.8 10.6 10.2 9.4 8.7 7.6 10.4 4.5 3.7 2.5 3.3 4.3 3.6 3.9 3.7 4.0 3.5 2.9 1.8 2.3 1.7 1.3 2.0 3.4 3.8 3.5 2.7 4.3
0.5 0.0 0.0 0.0 0.7 1.6 2.8 6.2 5.8 6.0 5.6 4.8 5.9 8.4 10.6 13.3 11.9 11.3 9.7 9.1 8.5 7.4 3.7 3.0 2.8 3.1 3.5 3.6 3.3 3.1 3.0 4.9 4.0 3.1 3.2 3.1 3.9 4.6 3.4 2.5 2.1 3.4 3.4 3.7
1.1 0.8 1.9 1.6 3.0 4.5 4.7 7.0 6.5 7.0 9.9 6.2 5.3 7.6 9.7 12.0 12.1 12.8 10.8 10.7 12.0 5.8 4.6 4.5 2.6 3.5 2.8 4.4 3.8 3.9 4.2 4.8 4.5 4.3 4.2 5.4 5.9 4.5 4.2 3.1 3.2 3.7 4.2 4.9
11.9 13.1 12.6 10.3 8.4 11.4 11.5 10.3 8.2 9.3 10.3 12.3 12.1 11.3 12.4 14.9 13.7 15.3 13.4 12.3 12.8 8.3 4.6 3.9 3.4 4.1 3.3 4.0 4.0 4.6 4.9 5.1 5.5 5.5 5.5 4.9 4.9 4.7 4.1 3.5 4.1 4.5 5.5 5.3
13.0 14.9 17.5 19.4 19.8 20.6 19.8 17.6 17.0 14.8 15.7 15.9 16.1 15.9 14.7 15.2 14.3 15.2 17.1 12.4 9.7 10.5 8.5 8.2 6.5 5.0 4.9 3.5 5.3 6.5 6.4 6.0 7.1 6.5 6.1 6.1 6.1 5.5 6.1 5.4 5.7 5.4 5.1 5.9
13.7 14.8 16.8 18.0 17.0 15.5 17.9 21.3 18.0 17.9 16.9 17.7 16.9 16.6 14.5 16.0 14.2 11.8 11.4 11.6 9.8 9.6 9.6 9.6 8.5 5.0 4.5 6.7 6.6 6.3 6.8 7.8 7.2 6.3 5.2 5.0 5.9 5.6 6.8 6.3 6.0 5.1 4.7 5.2
12.4 14.1 14.0 12.4 11.2 13.6 13.5 14.4 13.0 14.5 13.6 14.2 15.7 14.7 12.9 10.0 14.2 14.4 11.9 10.4 9.5 9.4 11.5 9.7 7.7 8.3 7.8 6.2 6.4 6.1 6.4 5.8 6.0 5.8 6.4 6.2 7.1 7.3 6.5 6.0 6.1 5.5 6.0 5.3
12.3 11.2 12.4 11.4 9.7 9.7 10.4 10.3 9.7 11.8 10.8 11.4 11.9 11.2 10.7 10.1 11.1 11.4 10.7 10.1 9.2 8.4 9.6 9.7 7.8 7.8 8.0 7.8 7.3 7.7 7.2 6.7 6.6 6.4 6.8 7.6 6.4 6.0 5.8 4.9 5.2 6.3 6.4 6.3
12.2 12.5 11.8 12.2 12.1 8.3 7.3 9.0 9.6 10.2 9.5 9.7 10.3 9.0 8.2 9.0 8.5 8.1 8.3 9.0 8.8 9.0 9.4 8.9 7.6 6.7 7.6 8.1 8.3 8.7 8.0 8.1 6.3 5.6 6.3 6.7 6.4 7.0 7.0 5.7 6.7 6.5 5.3 6.0

GFSNGP_prec_kuchsnow_345.txt.gz
Snowfall_Accumulation
5.9 2.2 1.6 3.4 3.3 3.4 11.7 7.4 12.5 1.7 1.0 0.6 0.9 2.2 1.0 0.4 0.0 0.1 0.7 2.3 4.2 6.6 9.0 6.7 6.1 2.7 1.0 0.5 0.0 0.0 0.3 0.2 0.1 0.0 0.4 0.3 0.5 0.0 0.0 0.0 0.5 0.4 0.5 0.9
5.3 0.9 0.6 1.6 0.8 2.6 3.3 2.4 1.0 0.4 0.2 0.4 0.7 0.9 0.3 0.2 0.1 0.1 0.7 2.1 3.1 4.0 4.6 4.3 1.9 2.2 1.2 1.2 0.0 0.0 0.4 0.5 0.4 0.7 0.6 0.7 0.7 0.4 0.4 0.5 0.4 0.6 0.9 0.8
12.7 1.7 3.9 14.5 2.7 1.7 7.7 2.4 3.3 7.3 5.3 2.3 2.8 2.6 1.0 0.6 0.2 0.1 0.2 1.2 3.7 3.6 3.1 2.3 1.1 0.4 0.5 0.4 0.0 0.0 0.0 0.3 0.7 0.6 0.8 0.7 0.6 0.5 0.5 0.7 0.7 0.6 1.0 1.1
18.8 7.2 32.9 2.9 0.0 0.0 1.4 4.3 3.2 2.7 3.2 2.7 1.5 1.5 1.0 0.0 0.0 0.1 0.0 0.0 0.5 0.7 0.5 0.2 0.4 0.2 0.1 0.0 0.0 0.0 0.0 0.0 0.4 0.6 0.5 0.4 0.4 0.5 0.3 0.7 0.9 2.0 2.2 2.5
27.2 12.9 3.8 1.0 0.2 0.1 0.3 1.7 0.2 2.6 2.5 1.1 0.9 1.5 0.4 0.0 0.0 0.0 0.0 0.2 0.1 0.0 0.0 0.0 0.0 0.0 0.0 0.5 0.1 0.0 1.7 1.6 1.3 0.6 1.4 1.0 0.4 1.2 1.0 1.0 1.6 1.3 1.2 2.5
17.0 24.8 13.9 2.8 0.0 0.0 0.0 5.2 0.3 1.7 1.5 1.6 0.3 1.5 1.4 0.2 0.0 0.0 0.0 0.0 0.0 0.0 0.0 0.0 0.0 0.0 0.9 0.5 0.3 1.5 1.3 1.5 2.2 2.3 2.7 2.5 2.1 2.1 1.8 1.3 1.0 1.0 1.5 2.0
16.0 17.2 2.7 0.3 0.0 0.0 4.7 7.7 0.7 3.1 1.8 1.9 7.1 3.4 1.1 0.4 0.0 0.0 0.0 0.0 0.0 0.0 0.0 0.0 0.0 0.1 0.3 0.5 1.3 1.2 1.6 2.9 4.0 3.8 3.3 2.9 2.7 1.9 1.6 1.8 1.6 1.9 2.1 2.5
24.0 34.2 21.2 0.1 0.0 1.2 0.7 0.1 0.6 3.6 0.9 1.0 0.8 0.6 0.4 0.1 0.0 0.0 0.0 0.0 0.0 0.0 0.0 0.0 0.0 0.0 0.4 1.0 1.1 1.3 1.9 2.1 2.2 2.7 2.8 2.7 2.5 2.6 2.3 2.0 2.3 2.2 1.6 2.7
11.5 11.5 1.0 0.0 0.3 0.2 0.2 0.4 1.1 3.6 0.3 0.5 0.7 0.9 0.5 0.1 0.0 0.0 0.0 0.0 0.0 0.0 0.0 0.0 0.0 0.0 0.3 0.8 0.8 1.6 2.3 2.5 2.4 2.0 2.2 2.1 2.1 2.2 1.9 1.7 1.7 1.9 1.7 2.1
3.5 0.6 0.2 0.1 0.0 0.0 0.1 0.1 0.2 1.3 0.2 0.3 1.0 1.1 0.6 0.2 0.0 0.1 0.1 0.0 0.0 0.0 0.0 0.0 0.2 0.3 0.3 0.2 0.4 0.9 1.4 1.9 1.9 2.2 2.4 2.0 1.9 1.7 1.8 2.4 2.2 2.0 3.3 5.2
2.1 0.3 0.4 0.1 0.2 0.1 0.1 0.1 0.2 0.1 0.2 0.3 0.5 0.8 0.6 0.3 0.1 0.0 0.2 0.2 0.1 0.0 0.0 0.4 0.3 0.4 0.4 0.4 0.4 0.7 0.5 1.2 1.6 1.7 2.1 2.0 1.9 2.2 1.4 1.8 4.0 6.5 7.7 8.4
8.6 1.5 2.2 0.6 0.3 0.1 0.4 0.6 0.6 0.4 0.5 0.3 0.1 0.2 0.3 0.4 0.2 0.0 0.0 0.1 0.2 0.1 0.1 0.3 0.3 0.6 0.6 0.4 0.4 0.7 0.6 0.9 0.7 1.4 2.3 2.4 2.3 4.0 3.5 6.2 6.9 9.0 15.4 19.4
8.5 2.1 2.1 1.8 0.9 0.3 1.3 2.3 2.8 1.8 1.6 0.9 0.8 0.1 0.0 0.1 0.2 0.0 0.0 0.2 0.6 0.6 0.4 0.4 0.4 0.6 0.8 0.9 0.8 1.6 1.8 1.6 1.4 1.5 2.3 3.3 4.2 5.2 8.9 12.0 12.1 13.8 13.7 14.0
3.6 5.3 6.4 6.4 9.9 4.7 1.2 1.5 1.8 0.3 0.2 0.3 0.4 0.3 0.3 0.7 0.3 0.2 3.4 4.9 5.8 1.9 2.3 2.4 1.2 2.3 2.8 3.1 3.3 4.5 7.6 9.3 10.6 12.4 12.2 11.6 12.1 13.1 12.4 13.0 14.2 16.3 15.0 13.9
0.5 0.8 3.3 4.1 3.9 3.4 1.0 0.2 0.1 0.0 0.3 0.4 0.0 0.4 0.5 0.4 0.3 0.5 0.7 5.8 9.3 11.9 13.3 13.6 12.6 18.5 19.1 16.3 15.2 17.1 15.6 15.5 15.8 14.5 13.5 12.4 11.0 11.0 10.6 10.5 9.9 10.9 11.1 12.2
0.0 0.0 0.2 0.6 0.2 0.0 0.3 0.1 0.6 0.7 0.1 0.1 0.1 0.4 0.3 0.1 0.3 0.6 0.8 1.6 4.4 7.8 12.5 16.8 20.7 26.3 23.0 19.6 19.7 19.0 17.6 13.5 10.3 8.3 8.4 9.5 9.5 8.1 8.4 7.2 6.4 6.4 6.0 6.7
0.6 1.4 1.0 0.7 0.2 0.0 0.0 0.5 0.2 0.1 0.2 0.2 0.3 0.1 0.4 0.7 1.2 2.7 4.7 6.0 8.3 12.1 15.4 17.1 21.7 19.7 16.5 13.0 11.8 11.5 9.7 7.7 5.4 5.2 5.1 5.1 5.2 6.0 5.2 7.2 7.2 5.2 5.1 3.9
0.0 0.1 0.0 0.0 1.1 0.9 0.6 0.2 0.0 0.1 0.6 0.4 1.0 2.6 5.6 6.9 8.0 12.5 14.7 15.1 15.0 15.9 15.9 13.7 9.5 6.5 5.7 5.4 5.8 5.4 4.4 3.3 2.3 3.4 3.9 5.2 5.4 3.3 3.0 3.0 2.2 2.9 2.7 2.0
0.0 0.0 0.1 0.1 0.1 0.1 0.8 0.8 0.9 3.7 5.3 6.0 6.3 7.7 8.0 9.7 9.8 10.6 10.2 9.4 8.7 7.6 10.4 4.5 3.7 2.5 3.3 4.3 3.6 3.9 3.7 4.0 3.5 2.9 1.8 2.3 1.7 1.3 2.0 3.4 3.8 3.6 2.7 4.3
0.5 0.0 0.0 0.0 0.7 1.6 2.8 6.2 5.8 6.0 5.6 4.8 5.9 8.4 10.6 13.3 11.9 11.3 9.7 9.1 8.5 7.4 3.7 3.0 2.8 3.1 3.5 3.6 3.3 3.1 3.0 4.9 4.0 3.1 3.2 3.1 3.9 4.6 3.4 2.5 2.1 3.4 3.4 3.7
1.1 0.8 1.9 1.6 3.0 4.5 4.7 7.0 6.5 7.0 9.9 6.2 5.3 7.6 9.7 12.0 12.1 12.8 10.8 10.7 12.0 5.8 4.6 4.5 2.6 3.5 2.8 4.4 3.8 3.9 4.2 4.8 4.5 4.3 4.2 5.4 5.9 4.5 4.2 3.1 3.2 3.7 4.2 4.9
11.9 13.1 12.6 10.3 8.4 11.4 11.5 10.3 8.2 9.3 10.3 12.3 12.1 11.3 12.4 14.9 13.7 15.3 13.4 12.3 12.8 8.3 4.6 3.9 3.4 4.1 3.3 4.0 4.0 4.6 4.9 5.1 5.5 5.5 5.5 4.9 4.9 4.7 4.1 3.5 4.1 4.5 5.5 5.3
13.0 14.9 17.5 19.4 19.8 20.6 19.8 17.6 17.0 14.8 15.7 15.9 16.1 15.9 14.7 15.2 14.3 15.2 17.1 12.4 9.7 10.5 8.5 8.2 6.5 5.0 4.9 3.5 5.3 6.5 6.4 6.0 7.1 6.5 6.1 6.1 6.1 5.5 6.1 5.4 5.7 5.4 5.1 5.9
13.7 14.8 16.8 18.0 17.0 15.5 17.9 21.3 18.0 17.9 16.9 17.7 16.9 16.6 14.5 16.0 14.2 11.8 11.4 11.7 9.8 9.7 9.6 9.6 8.5 5.0 4.5 6.7 6.6 6.3 6.8 7.8 7.2 6.3 5.2 5.0 5.9 5.6 6.8 6.3 6.0 5.1 4.7 5.2
12.4 14.1 14.0 12.4 11.2 13.6 13.5 14.4 13.0 14.5 13.6 14.2 15.7 14.7 12.9 10.0 14.2 14.6 12.0 10.4 9.5 9.6 11.6 9.8 7.7 8.3 7.8 6.2 6.4 6.1 6.4 5.8 6.0 5.8 6.4 6.2 7.1 7.3 6.5 6.0 6.1 5.5 6.0 5.3
12.3 11.2 12.4 11.4 9.7 9.7 10.4 10.3 9.7 11.8 10.8 11.4 11.9 11.2 10.7 10.6 11.3 11.5 10.7 10.3 9.4 8.5 9.7 9.8 7.8 7.8 8.0 7.8 7.3 7.7 7.2 6.7 6.6 6.4 6.8 7.6 6.4 6.0 5.8 4.9 5.2 6.3 6.4 6.3
12.2 12.5 11.8 12.2 12.1 8.3 7.3 9.0 9.6 10.2 9.5 9.7 10.9 10.1 8.9 9.3 8.6 8.5 8.5 9.2 8.9 9.1 9.5 9.0 7.6 6.7 7.6 8.1 8.3 8.7 8.0 8.1 6.3 5.6 6.3 6.7 6.4 7.0 7.0 5.7 6.7 6.5 5.3 6.0